Time,TemperatureF,DewpointF,PressureIn,WindDirection,WindDirectionDegrees,WindSpeedMPH,WindSpeedGustMPH,Humidity,HourlyPrecipIn,Conditions,Clouds,dailyrainin,SoftwareType,DateUTC
2013-05-26 00:12:00,40.6,34.0,30.17,WSW,247,2.7,-999.0,77,-99.99,,,0.00,Acu-Link.com,2013-05-26 04:12:00,
2013-05-26 00:27:00,40.5,33.9,30.17,West,270,2.7,-999.0,77,-99.99,,,0.00,Acu-Link.com,2013-05-26 04:27:00,
2013-05-26 00:43:00,39.6,33.6,30.17,West,270,0.0,-999.0,79,-99.99,,,0.00,Acu-Link.com,2013-05-26 04:43:00,
2013-05-26 00:58:00,38.8,33.8,30.17,West,270,0.0,-999.0,82,-99.99,,,0.00,Acu-Link.com,2013-05-26 04:58:00,
2013-05-26 01:13:00,39.0,33.7,30.17,WSW,247,2.2,-999.0,81,-99.99,,,0.00,Acu-Link.com,2013-05-26 05:13:00,
2013-05-26 01:29:00,39.2,33.9,30.17,West,270,2.7,-999.0,81,-99.99,,,0.00,Acu-Link.com,2013-05-26 05:29:00,
2013-05-26 01:44:00,39.0,34.0,30.16,West,270,2.2,-999.0,82,-99.99,,,0.00,Acu-Link.com,2013-05-26 05:44:00,
2013-05-26 01:59:00,38.5,33.8,30.16,WSW,247,1.1,-999.0,83,-99.99,,,0.00,Acu-Link.com,2013-05-26 05:59:00,
2013-05-26 02:14:00,38.5,33.8,30.16,West,270,2.7,-999.0,83,-99.99,,,0.00,Acu-Link.com,2013-05-26 06:14:00,
2013-05-26 02:29:00,38.5,33.5,30.16,West,270,1.7,-999.0,82,-99.99,,,0.00,Acu-Link.com,2013-05-26 06:29:00,
2013-05-26 02:45:00,38.5,33.2,30.16,West,270,2.7,-999.0,81,-99.99,,,0.00,Acu-Link.com,2013-05-26 06:45:00,
2013-05-26 03:00:00,38.3,33.0,30.16,West,270,2.2,-999.0,81,-99.99,,,0.00,Acu-Link.com,2013-05-26 07:00:00,
2013-05-26 03:15:00,37.9,33.2,30.16,West,270,0.0,-999.0,83,-99.99,,,0.00,Acu-Link.com,2013-05-26 07:15:00,
2013-05-26 03:30:00,37.8,33.4,30.16,West,270,1.7,-999.0,84,-99.99,,,0.00,Acu-Link.com,2013-05-26 07:30:00,
2013-05-26 03:46:00,37.6,33.2,30.16,West,270,2.7,-999.0,84,-99.99,,,0.00,Acu-Link.com,2013-05-26 07:46:00,
2013-05-26 04:01:00,37.0,32.9,30.16,South,180,1.1,-999.0,85,-99.99,,,0.00,Acu-Link.com,2013-05-26 08:01:00,
2013-05-26 04:16:00,37.0,32.9,30.16,West,270,2.7,-999.0,85,-99.99,,,0.00,Acu-Link.com,2013-05-26 08:16:00,
2013-05-26 04:31:00,37.0,32.6,30.16,South,180,2.2,-999.0,84,-99.99,,,0.00,Acu-Link.com,2013-05-26 08:31:00,
2013-05-26 04:46:00,36.3,32.2,30.16,SW,225,1.7,-999.0,85,-99.99,,,0.00,Acu-Link.com,2013-05-26 08:46:00,
2013-05-26 05:02:00,36.5,32.4,30.16,SW,225,1.1,-999.0,85,-99.99,,,0.00,Acu-Link.com,2013-05-26 09:02:00,
2013-05-26 05:17:00,36.3,32.2,30.17,SSW,202,0.0,-999.0,85,-99.99,,,0.00,Acu-Link.com,2013-05-26 09:17:00,
2013-05-26 05:32:00,35.8,31.7,30.17,South,180,2.2,-999.0,85,-99.99,,,0.00,Acu-Link.com,2013-05-26 09:32:00,
2013-05-26 05:47:00,36.1,31.7,30.17,WSW,247,2.7,-999.0,84,-99.99,,,0.00,Acu-Link.com,2013-05-26 09:47:00,
2013-05-26 06:02:00,35.8,31.4,30.17,West,270,2.2,-999.0,84,-99.99,,,0.00,Acu-Link.com,2013-05-26 10:02:00,
2013-05-26 06:18:00,35.6,31.5,30.17,SSE,157,0.0,-999.0,85,-99.99,,,0.00,Acu-Link.com,2013-05-26 10:18:00,
2013-05-26 07:16:00,36.1,32.3,30.18,SE,135,1.1,-999.0,86,-99.99,,,0.00,Acu-Link.com,2013-05-26 11:16:00,
2013-05-26 08:15:00,41.9,35.6,30.20,SW,225,5.8,-999.0,78,-99.99,,,0.00,Acu-Link.com,2013-05-26 12:15:00,
2013-05-26 08:34:00,44.2,36.8,30.20,West,270,3.7,-999.0,75,-99.99,,,0.00,Acu-Link.com,2013-05-26 12:34:00,
2013-05-26 08:49:00,46.8,38.3,30.20,SSW,202,2.2,-999.0,72,-99.99,,,0.00,Acu-Link.com,2013-05-26 12:49:00,
2013-05-26 10:17:00,50.0,34.9,30.17,NNE,22,6.3,-999.0,56,-99.99,,,0.00,Acu-Link.com,2013-05-26 14:17:00,
2013-05-26 10:32:00,52.5,35.9,30.16,WNW,292,3.7,-999.0,53,-99.99,,,0.00,Acu-Link.com,2013-05-26 14:32:00,
2013-05-26 10:47:00,52.9,37.2,30.16,NNW,337,4.2,-999.0,55,-99.99,,,0.00,Acu-Link.com,2013-05-26 14:47:00,
2013-05-26 11:04:00,53.8,36.1,30.16,West,270,5.8,-999.0,51,-99.99,,,0.00,Acu-Link.com,2013-05-26 15:04:00,
2013-05-26 11:21:00,54.1,34.3,30.16,NNE,22,5.8,-999.0,47,-99.99,,,0.00,Acu-Link.com,2013-05-26 15:21:00,
2013-05-26 11:36:00,54.9,34.0,30.16,WSW,247,4.2,-999.0,45,-99.99,,,0.00,Acu-Link.com,2013-05-26 15:36:00,
2013-05-26 11:53:00,55.6,32.9,30.16,WNW,292,4.7,-999.0,42,-99.99,,,0.00,Acu-Link.com,2013-05-26 15:53:00,
2013-05-26 12:41:00,57.4,33.3,30.15,NNE,22,4.7,-999.0,40,-99.99,,,0.00,Acu-Link.com,2013-05-26 16:41:00,
2013-05-26 14:43:00,61.9,36.7,30.19,West,270,4.2,-999.0,39,-99.99,,,0.00,Acu-Link.com,2013-05-26 18:43:00,
2013-05-26 14:58:00,60.6,34.2,30.18,SW,225,5.3,-999.0,37,-99.99,,,0.00,Acu-Link.com,2013-05-26 18:58:00,
2013-05-26 15:13:00,61.3,35.5,30.19,SE,135,5.3,-999.0,38,-99.99,,,0.00,Acu-Link.com,2013-05-26 19:13:00,
2013-05-26 15:29:00,62.8,36.1,30.17,West,270,11.4,-999.0,37,-99.99,,,0.00,Acu-Link.com,2013-05-26 19:29:00,
2013-05-26 15:44:00,62.4,34.4,30.18,West,270,5.8,-999.0,35,-99.99,,,0.00,Acu-Link.com,2013-05-26 19:44:00,
2013-05-26 15:59:00,62.6,35.3,30.18,NE,45,4.7,-999.0,36,-99.99,,,0.00,Acu-Link.com,2013-05-26 19:59:00,
2013-05-26 16:15:00,62.4,34.4,30.17,SW,225,5.8,-999.0,35,-99.99,,,0.00,Acu-Link.com,2013-05-26 20:15:00,
2013-05-26 16:31:00,62.4,33.7,30.18,WNW,292,7.8,-999.0,34,-99.99,,,0.00,Acu-Link.com,2013-05-26 20:31:00,
2013-05-26 16:46:00,62.1,34.8,30.17,SW,225,4.7,-999.0,36,-99.99,,,0.00,Acu-Link.com,2013-05-26 20:46:00,
2013-05-26 17:01:00,62.1,34.8,30.17,WNW,292,5.8,-999.0,36,-99.99,,,0.00,Acu-Link.com,2013-05-26 21:01:00,
2013-05-26 17:17:00,61.5,34.3,30.17,West,270,5.3,-999.0,36,-99.99,,,0.00,Acu-Link.com,2013-05-26 21:17:00,
2013-05-26 17:35:00,61.7,35.2,30.16,NW,315,4.7,-999.0,37,-99.99,,,0.00,Acu-Link.com,2013-05-26 21:35:00,
2013-05-26 17:51:00,61.3,35.5,30.14,NW,315,4.7,-999.0,38,-99.99,,,0.00,Acu-Link.com,2013-05-26 21:51:00,
2013-05-26 18:07:00,61.0,35.9,30.14,WSW,247,6.8,-999.0,39,-99.99,,,0.00,Acu-Link.com,2013-05-26 22:07:00,
2013-05-26 18:22:00,61.3,36.1,30.14,NW,315,5.8,-999.0,39,-99.99,,,0.00,Acu-Link.com,2013-05-26 22:22:00,
2013-05-26 18:37:00,62.2,36.9,30.14,WSW,247,4.2,-999.0,39,-99.99,,,0.00,Acu-Link.com,2013-05-26 22:37:00,
2013-05-26 18:53:00,60.8,37.0,30.14,NNW,337,6.8,-999.0,41,-99.99,,,0.00,Acu-Link.com,2013-05-26 22:53:00,
2013-05-26 19:08:00,60.6,37.4,30.15,NE,45,3.7,-999.0,42,-99.99,,,0.00,Acu-Link.com,2013-05-26 23:08:00,
2013-05-26 19:23:00,59.9,36.1,30.16,WSW,247,4.7,-999.0,41,-99.99,,,0.00,Acu-Link.com,2013-05-26 23:23:00,
2013-05-26 19:38:00,59.7,36.0,30.16,West,270,4.2,-999.0,41,-99.99,,,0.00,Acu-Link.com,2013-05-26 23:38:00,
2013-05-26 19:54:00,57.0,35.9,30.16,West,270,2.2,-999.0,45,-99.99,,,0.00,Acu-Link.com,2013-05-26 23:54:00,
2013-05-26 20:09:00,55.4,36.0,30.16,WSW,247,4.7,-999.0,48,-99.99,,,0.00,Acu-Link.com,2013-05-27 00:09:00,
2013-05-26 20:24:00,54.1,36.4,30.17,SW,225,1.7,-999.0,51,-99.99,,,0.00,Acu-Link.com,2013-05-27 00:24:00,
2013-05-26 20:39:00,52.9,36.7,30.17,South,180,0.0,-999.0,54,-99.99,,,0.00,Acu-Link.com,2013-05-27 00:39:00,
2013-05-26 20:54:00,51.6,36.9,30.18,South,180,0.0,-999.0,57,-99.99,,,0.00,Acu-Link.com,2013-05-27 00:54:00,
2013-05-26 21:10:00,51.1,36.8,30.18,South,180,0.0,-999.0,58,-99.99,,,0.00,Acu-Link.com,2013-05-27 01:10:00,
2013-05-26 21:25:00,50.0,37.5,30.18,SW,225,0.0,-999.0,62,-99.99,,,0.00,Acu-Link.com,2013-05-27 01:25:00,
2013-05-26 21:40:00,48.7,37.1,30.18,South,180,1.1,-999.0,64,-99.99,,,0.00,Acu-Link.com,2013-05-27 01:40:00,
2013-05-26 21:55:00,47.7,36.5,30.19,ESE,112,1.7,-999.0,65,-99.99,,,0.00,Acu-Link.com,2013-05-27 01:55:00,
2013-05-26 22:10:00,47.1,37.5,30.20,ESE,112,2.2,-999.0,69,-99.99,,,0.00,Acu-Link.com,2013-05-27 02:10:00,
2013-05-26 22:26:00,46.9,37.6,30.20,ESE,112,2.2,-999.0,70,-99.99,,,0.00,Acu-Link.com,2013-05-27 02:26:00,
2013-05-26 22:41:00,46.8,37.9,30.21,ESE,112,0.0,-999.0,71,-99.99,,,0.00,Acu-Link.com,2013-05-27 02:41:00,
2013-05-26 22:56:00,46.8,37.9,30.21,ESE,112,2.2,-999.0,71,-99.99,,,0.00,Acu-Link.com,2013-05-27 02:56:00,
2013-05-26 23:11:00,46.0,37.8,30.21,ESE,112,2.7,-999.0,73,-99.99,,,0.00,Acu-Link.com,2013-05-27 03:11:00,
2013-05-26 23:26:00,45.3,37.5,30.22,ESE,112,1.7,-999.0,74,-99.99,,,0.00,Acu-Link.com,2013-05-27 03:26:00,
2013-05-26 23:42:00,45.0,37.9,30.22,ESE,112,1.7,-999.0,76,-99.99,,,0.00,Acu-Link.com,2013-05-27 03:42:00,
2013-05-26 23:57:00,44.4,37.6,30.22,ESE,112,2.7,-999.0,77,-99.99,,,0.00,Acu-Link.com,2013-05-27 03:57:00,